Change the Weather History Date:

Thursday, January 30, 2014

  Actual Average Record
Temperature  
Mean Temperature 16 °F -  
Max Temperature 25 °F 44 °F 70 °F (1975)
Min Temperature 7 °F 26 °F 7 °F (2014)
Degree Days  
Heating Degree Days 49    
Moisture  
Dew Point 9 °F    
Average Humidity 75    
Maximum Humidity 98    
Minimum Humidity 40    
Precipitation  
Precipitation 0.00 in - - ()
Sea Level Pressure  
Sea Level Pressure 30.38 in    
Wind  
Wind Speed 3 mph (SE)    
Max Wind Speed 6 mph    
Max Gust Speed -    
Visibility 10 miles    
Events      
Averages and records for this station are not official NWS values.
T = Trace of Precipitation, MM = Missing Value Source: NWS Daily Summary

Daily Weather History Graph

Daily Weather History Graph

Search for Another Location

Airport or City:

Trip Planner

Search our weather history database for the weather conditions in past years. The results will help you decide how hot, cold, wet, or windy it might be!

Date:

Astronomy

Jan. 30, 2014 Rise Set
Actual Time 7:10 AM EST 5:20 PM EST
Civil Twilight 6:41 AM EST 5:48 PM EST
Nautical Twilight 6:09 AM EST 6:20 PM EST
Astronomical Twilight 5:38 AM EST 6:52 PM EST
Moon 6:34 AM EST (1/30) 5:29 PM EST (1/30)
Length of Visible Light 11h 06m
Length of Day
10h 10m
Waning Crescent, 0% of the Moon is Illuminated
Jan 30
Waning Crescent
Jan 30
New
Feb 6
First Quarter
Feb 14
Full
Feb 22
Last Quarter

Hourly Weather History & Observations

Time (EST) Temp. Windchill Dew Point Humidity Pressure Visibility Wind Dir Wind Speed Gust Speed Precip Events Conditions
12:58 AM 10.0 °F 3.6 °F 5.4 °F 81% 30.40 in 10.0 mi SSE 3.5 mph - N/A   Clear
1:58 AM 7.5 °F -1.1 °F 5.4 °F 91% 30.40 in 10.0 mi South 4.6 mph - N/A   Clear
3:58 AM 7.3 °F - 1.9 °F 79% 30.43 in 10.0 mi Calm Calm - N/A   Clear
4:58 AM 7.7 °F - 3.2 °F 82% 30.44 in 10.0 mi Calm Calm - N/A   Clear
5:58 AM 7.5 °F - 6.6 °F 96% 30.44 in 10.0 mi Calm Calm - N/A   Clear
6:58 AM 7.3 °F - 3.7 °F 85% 30.46 in 10.0 mi Calm Calm - N/A   Clear
7:58 AM 7.7 °F - 4.8 °F 88% 30.48 in 10.0 mi SSW 1.2 mph - N/A   Clear
8:58 AM 13.5 °F - 5.2 °F 70% 30.49 in 10.0 mi SW 2.3 mph - N/A   Clear
9:58 AM 19.2 °F 14.1 °F 8.6 °F 63% 30.49 in 10.0 mi North 3.5 mph - N/A   Clear
10:58 AM 22.3 °F - 1.0 °F 40% 30.48 in 10.0 mi Variable 1.2 mph - N/A   Clear
11:58 AM 24.1 °F 17.0 °F 5.2 °F 45% 30.45 in 10.0 mi East 5.8 mph - N/A   Clear
12:58 PM 23.9 °F - 6.8 °F 48% 30.44 in 10.0 mi Variable 2.3 mph - N/A   Clear
1:58 PM 25.2 °F 18.3 °F 10.6 °F 54% 30.39 in 10.0 mi ESE 5.8 mph - N/A   Clear
2:58 PM 25.2 °F 18.3 °F 10.2 °F 53% 30.38 in 10.0 mi East 5.8 mph - N/A   Clear
3:58 PM 25.7 °F 20.1 °F 11.1 °F 54% 30.38 in 10.0 mi East 4.6 mph - N/A   Clear
4:58 PM 22.5 °F 15.1 °F 14.2 °F 71% 30.35 in 10.0 mi East 5.8 mph - N/A   Clear
5:58 PM 17.4 °F 9.1 °F 11.5 °F 78% 30.31 in 10.0 mi East 5.8 mph - N/A   Clear
6:58 PM 19.4 °F 12.8 °F 13.1 °F 76% 30.30 in 10.0 mi SE 4.6 mph - N/A   Clear
7:58 PM 19.4 °F - 15.1 °F 83% 30.30 in 10.0 mi South 2.3 mph - N/A   Clear
8:58 PM 17.4 °F - 15.1 °F 91% 30.26 in 10.0 mi Calm Calm - N/A   Clear
9:58 PM 16.7 °F 11.2 °F 16.3 °F 98% 30.27 in 10.0 mi SW 3.5 mph - N/A   Clear
10:58 PM 16.0 °F - 15.4 °F 98% 30.25 in 10.0 mi West 2.3 mph - N/A   Clear
11:58 PM 13.6 °F 7.7 °F 13.3 °F 98% 30.22 in 10.0 mi WNW 3.5 mph - N/A   Clear